Tracking 20241 objects as of 28-Jan-2020
HD Live streaming from Space Station
objects crossing your sky now

RWASAT-1

Track RWASAT-1 now!
10-day predictions
RWASAT-1 is classified as:


NORAD ID: 44790
Int'l Code: 1998-067QT
Perigee: 414.4 km
Apogee: 425.6 km
Inclination: 51.6 °
Period: 92.8 minutes
Semi major axis: 6790 km
RCS: Unknown
Launch date: November 20, 1998
Source: Republic of Rwanda (RWA)
Launch site: TYURATAM MISSILE AND SPACE COMPLEX (TTMTR)

Uplink (MHz):
Downlink (MHz):
Beacon (MHz):
Mode:
Call sign:
Status: Unknown

aabbcc
Your satellite tracking list
Your tracking list is empty




NASA's NSSDC Master Catalog

Two Line Element Set (TLE):
1 44790U 98067QV  20028.10175817 -.00000468  00000-0  00000+0 0  9994
2 44790  51.6441 325.8869 0008259 206.9925 275.7430 15.51335405 10679
Source of the keplerian elements: AFSPC